Regional Weather Roundup
Issued by NWS

Home | Current Version | Previous Version | Graphics & Text | Print | Product List | Glossary Off
Versions: 1 2 3 4 5 6 7 8 9 10 11 12 13 14 15 16 17 18 19 20 21 22 23 24 25 26 27 28 29 30 31 32 33 34 35 36 37 38 39 40 41 42 43 44 45 46 47 48 49 50

000
ASUS43 KTOP 282159
RWRKS

WEATHER ROUNDUP FOR KANSAS
NATIONAL WEATHER SERVICE GOODLAND KS
400 PM CST SUN DEC 28 2014

NOTE:  "FAIR" INDICATES FEW OR NO CLOUDS BELOW 12,000 FEET WITH NO
SIGNIFICANT WEATHER AND/OR OBSTRUCTIONS TO VISIBILITY.

KSZ001>006-013>018-027>032-041>047-282300-
NORTHWEST KANSAS

CITY           SKY/WX    TMP DP  RH WIND       PRES   REMARKS
GOODLAND       CLOUDY    32  24  72 SE13      29.92S WCI  22
HAYS           CLOUDY    39  19  45 S10       30.01S WCI  32
HILL CITY      CLOUDY    36  24  62 E7        30.00F
RUSSELL        PTSUNNY   40  23  50 S10       30.01S WCI  33
$$

KSZ061>065-074>080-084>089-282300-
SOUTHWEST KANSAS

CITY           SKY/WX    TMP DP  RH WIND       PRES   REMARKS
DODGE CITY     SUNNY     42  16  34 S15G23    29.96F
ELKHART          N/A     42  20  41 S7          N/A
GARDEN CITY    MOSUNNY   39  19  44 S12       29.94R WCI  32
GREAT BEND     MOSUNNY   43  19  39 S9        30.03R
LIBERAL        SUNNY     41  19  42 S9        29.96R
$$

KSZ066>073-081>083-090>101-282300-
SOUTHEAST KANSAS

CITY           SKY/WX    TMP DP  RH WIND       PRES   REMARKS
CHANUTE        SUNNY     39  19  44 S6        30.14F
COFFEYVILLE    SUNNY     39  21  48 S5        30.16S
HUTCHINSON     SUNNY     41  19  41 SE13      30.07R
MEDICINE LODGE   N/A     41  20  43 SE12      30.05R
NEWTON         SUNNY     39  16  38 S7        30.09S
PARSONS        SUNNY     40  18  41 VRB5      30.16F
WICHITA INTL   SUNNY     42  19  39 S13       30.08F
WICHITA JABRA  MOSUNNY   40  17  39 S7        30.09S
WINFIELD       SUNNY     42  20  41 S9        30.11F
$$

KSZ007>012-019>026-033>040-048>060-102>105-282300-
NORTHEAST KANSAS

CITY           SKY/WX    TMP DP  RH WIND       PRES   REMARKS
CONCORDIA      MOSUNNY   38  21  50 CALM      30.07S
EMPORIA        MOSUNNY   38  18  44 S7        30.10F
LAWRENCE       PTCLDY    38  21  50 SE6       30.14S
MANHATTAN      PTSUNNY   42  19  39 S5        30.10S
OLATHE IND     CLEAR     37  20  50 S7        30.14S
OLATHE EXE     CLEAR     37  19  48 S7        30.13S
SALINA         SUNNY     41  21  44 S7        30.09R
TOPEKA BILLARD MOCLDY    40  20  44 S7        30.13S
TOPEKA FORBES  MOCLDY    40  21  46 S7        30.12S
$$


USA.gov is the U.S. government's official web portal to all federal, state and local government web resources and services.